Location: Unspecified
(22.6800°N, 112.2000°E)
Time: 09:48:28
(UTC+08:00)

S-56A Canister/Altair - Pass Details

Date: 27 July 2021
Orbit: 632 x 2500 km, 38.9° (Epoch: 27 September)

Event Time Altitude Azimuth Distance (km) Brightness Sun altitude
Rises 22:13:48 0° 303° (WNW) 5,983 13.0 -35.4°
Reaches altitude 10° 22:18:06 10° 306° (NW) 4,799 12.3 -36.1°
Maximum altitude 22:30:58 66° 27° (NNE) 1,846 9.3 -38.0°
Enters shadow 22:31:41 64° 48° (NE) 1,826 9.2 -38.1°
Drops below altitude 10° 22:39:29 10° 109° (ESE) 3,289 - -39.2°
Sets 22:41:54 0° 112° (ESE) 4,043 - -39.6°
